Date,TemperatureHighF,TemperatureAvgF,TemperatureLowF,DewpointHighF,DewpointAvgF,DewpointLowF,HumidityHigh,HumidityAvg,HumidityLow,PressureMaxIn,PressureMinIn,WindSpeedMaxMPH,WindSpeedAvgMPH,GustSpeedMaxMPH,PrecipitationSumIn
2013-10-1,72,69,67,61,61,60,79,75,68,0.00,40.00,4,3,0,0.00
2013-10-2,83,67,61,66,30,-100,104,50,27,0.00,40.00,5,2,0,0.00
2013-10-3,74,66,60,68,38,-100,104,73,57,0.00,40.00,6,2,0,0.24
2013-10-4,78,70,64,68,64,61,101,82,69,0.00,40.00,7,3,0,0.00
2013-10-5,76,70,66,69,42,-100,104,76,79,0.00,40.00,6,3,0,0.32
2013-10-6,66,60,51,65,-29,-100,104,37,64,0.00,40.00,8,4,0,0.23
2013-10-7,60,51,46,47,42,39,81,71,49,0.00,40.00,9,5,0,0.00
2013-10-8,73,55,47,47,43,40,80,66,32,0.00,40.00,3,1,0,0.00
2013-10-9,69,60,49,44,42,40,77,53,33,0.00,40.00,3,1,0,0.00
2013-10-10,74,58,47,49,45,41,84,64,33,0.00,40.00,2,1,0,0.00
2013-10-11,74,60,49,46,43,41,80,56,30,0.00,40.00,3,1,0,0.00
2013-10-12,76,63,54,60,49,-100,87,63,43,0.00,40.00,7,2,0,0.06
2013-10-13,62,54,39,54,41,35,86,63,43,0.00,40.00,7,3,0,0.00
2013-10-14,64,50,36,42,37,32,88,65,37,0.00,40.00,7,2,0,0.00
2013-10-15,63,54,47,58,48,39,87,78,70,0.00,40.00,6,4,0,0.10
2013-10-16,61,50,46,57,44,40,85,77,71,0.00,40.00,6,5,0,0.01
2013-10-17,49,48,45,45,44,39,86,84,81,0.00,40.00,7,4,0,0.35
2013-10-18,54,45,40,42,38,35,86,77,64,0.00,40.00,7,4,0,0.00
2013-10-19,53,44,41,40,34,-100,86,70,43,0.00,40.00,9,4,0,0.20
2013-10-20,59,51,40,36,-71,-100,77,15,69,0.00,40.00,11,6,0,0.00
2013-10-21,57,48,41,-100,-100,-100,0,0,100,0.00,40.00,9,6,0,0.15
2013-10-22,45,39,36,-100,-100,-100,0,0,100,0.00,40.00,8,4,0,0.01
2013-10-23,43,37,35,-100,-100,-100,0,0,100,0.00,40.00,8,3,0,0.14
2013-10-24,40,36,33,-100,-100,-100,0,0,100,0.00,40.00,8,3,0,0.35
2013-10-25,47,38,32,-100,-100,-100,0,0,100,0.00,40.00,8,3,0,0.16
2013-10-26,50,44,42,-100,-100,-100,0,0,100,0.00,40.00,12,9,0,0.00
2013-10-27,54,44,32,-100,-100,-100,0,0,100,0.00,40.00,8,3,0,0.00
2013-10-28,57,42,30,-100,-100,-100,0,0,100,0.00,40.00,6,2,0,0.00
2013-10-29,54,42,34,37,-65,-100,68,16,49,0.00,40.00,7,3,0,0.00
2013-10-30,59,52,42,56,46,38,96,79,69,0.00,40.00,3,2,0,0.72
2013-10-31,62,60,53,61,58,52,97,95,93,0.00,40.00,11,8,0,1.64